Weather History for Jackson, KY

Change the Weather History Date:

Saturday, January 25, 2014

  Actual Average Record
Temperature  
Mean Temperature 26 °F 35 °F  
Max Temperature 33 °F 44 °F 69 °F (1989)
Min Temperature 19 °F 27 °F 6 °F (2008)
Degree Days  
Heating Degree Days 39 30  
Month to date heating degree days 889 750  
Since 1 July heating degree days 2534 2384  
Cooling Degree Days 0 0  
Month to date cooling degree days 0 0  
Year to date cooling degree days 0 0  
Moisture  
Dew Point 13 °F    
Average Humidity 61    
Maximum Humidity 92    
Minimum Humidity 29    
Precipitation  
Precipitation 0.22 in 0.12 in 0.51 in (1987)
Month to date precipitation 3.14 2.88  
Year to date precipitation 3.14 2.88  
Snow  
Snow 2.40 in 0.20 in - ()
Month to date snowfall 14.0 5.5  
Since 1 July snowfall 18.3 11.0  
Snow Depth 2.00 in    
Sea Level Pressure  
Sea Level Pressure 29.74 in    
Wind  
Wind Speed 9 mph (SW)    
Max Wind Speed 22 mph    
Max Gust Speed 35 mph    
Visibility 7 miles    
Events Fog , Snow    
T = Trace of Precipitation, MM = Missing Value Source: NWS Daily Summary

Daily Weather History Graph

Daily Weather History Graph

Search for Another Location

Airport:

Trip Planner

Search our weather history database for the weather conditions in past years. The results will help you decide how hot, cold, wet, or windy it might be!

Date:

Astronomy

Jan. 25, 2014 Rise Set
Actual Time 7:42 AM EST 5:49 PM EST
Civil Twilight 7:14 AM EST 6:17 PM EST
Nautical Twilight 6:42 AM EST 6:49 PM EST
Astronomical Twilight 6:11 AM EST 7:20 PM EST
Moon 2:13 AM EST (1/25) 12:49 PM EST (1/25)
Length of Visible Light 11h 03m
Length of Day
10h 07m
Waning Crescent, 34% of the Moon is Illuminated
Jan 25
Waning Crescent
Jan 30
New
Feb 6
First Quarter
Feb 14
Full
Feb 22
Last Quarter

Hourly Weather History & Observations

Time (EST) Temp. Windchill Dew Point Humidity Pressure Visibility Wind Dir Wind Speed Gust Speed Precip Events Conditions
12:53 AM 21.9 °F 14.5 °F -4.0 °F 32% 29.99 in 10.0 mi Variable 5.8 mph - N/A   Clear
1:53 AM 24.1 °F 14.4 °F -2.9 °F 31% 29.93 in 10.0 mi SSW 9.2 mph 20.7 mph N/A   Clear
2:53 AM 25.0 °F 16.3 °F -4.0 °F 28% 29.91 in 10.0 mi SW 8.1 mph 27.6 mph N/A   Scattered Clouds
3:53 AM 25.0 °F 19.3 °F -2.9 °F 30% 29.86 in 10.0 mi Variable 4.6 mph 23.0 mph N/A   Overcast
4:53 AM 25.0 °F 16.3 °F -2.0 °F 31% 29.81 in 10.0 mi SW 8.1 mph 21.9 mph N/A   Overcast
5:53 AM 25.0 °F 14.2 °F -0.0 °F 34% 29.78 in 10.0 mi SSW 11.5 mph 23.0 mph N/A   Overcast
6:53 AM 25.0 °F 14.2 °F 7.0 °F 46% 29.77 in 10.0 mi SW 11.5 mph 25.3 mph N/A   Overcast
7:11 AM 23.0 °F 10.1 °F 10.9 °F 60% 29.72 in 2.5 mi SW 15.0 mph 31.1 mph 0.00 in Snow Light Snow
7:16 AM 21.9 °F 9.2 °F 12.9 °F 68% 29.72 in 1.5 mi SW 13.8 mph 27.6 mph 0.00 in Snow Light Snow
7:40 AM 21.0 °F - 16.0 °F 81% 29.70 in 1.0 mi North - - 0.01 in Snow Light Snow
7:53 AM 21.0 °F 11.4 °F 16.0 °F 81% 29.75 in 0.8 mi SSW 8.1 mph - 0.02 in Snow Light Snow
8:16 AM 21.0 °F 12.4 °F 17.1 °F 85% 29.70 in 0.2 mi Variable 6.9 mph - 0.01 in Fog , Snow Snow
8:53 AM 21.0 °F 13.4 °F 18.0 °F 88% 29.74 in 0.2 mi Variable 5.8 mph - 0.06 in Fog , Snow Snow
9:53 AM 21.9 °F 14.5 °F 19.0 °F 89% 29.73 in 0.2 mi Variable 5.8 mph 18.4 mph 0.07 in Fog , Snow Snow
10:53 AM 21.9 °F 11.7 °F 19.0 °F 89% 29.73 in 0.2 mi SW 9.2 mph 18.4 mph 0.05 in Fog , Snow Snow
11:12 AM 23.0 °F - 19.0 °F 85% 29.68 in 0.2 mi North - - 0.01 in Fog , Snow Snow
11:24 AM 23.0 °F 12.4 °F 19.0 °F 85% 29.67 in 1.2 mi SW 10.4 mph 23.0 mph 0.02 in Snow Light Snow
11:27 AM 23.0 °F 11.7 °F 19.0 °F 85% 29.67 in 2.5 mi SW 11.5 mph 23.0 mph 0.02 in Snow Light Snow
11:34 AM 23.0 °F 12.4 °F 19.0 °F 85% 29.67 in 8.0 mi WSW 10.4 mph 24.2 mph 0.02 in   Overcast
11:53 AM 24.1 °F 14.4 °F 19.0 °F 81% 29.71 in 10.0 mi SW 9.2 mph 21.9 mph 0.02 in   Overcast
12:53 PM 25.0 °F 14.8 °F 19.0 °F 78% 29.68 in 10.0 mi SW 10.4 mph 18.4 mph N/A   Overcast
1:33 PM 27.0 °F 18.7 °F 19.9 °F 75% 29.62 in 10.0 mi SW 8.1 mph 21.9 mph N/A   Overcast
1:53 PM 27.0 °F 18.0 °F 19.9 °F 75% 29.65 in 10.0 mi SW 9.2 mph 19.6 mph N/A   Overcast
2:53 PM 30.9 °F - 23.0 °F 72% 29.64 in 5.0 mi North - - 0.00 in Snow Light Snow
3:02 PM 30.0 °F - 21.9 °F 72% 29.61 in 7.0 mi North - - 0.00 in Snow Light Snow
3:10 PM 28.9 °F 20.4 °F 21.9 °F 75% 29.61 in 2.0 mi SW 9.2 mph 19.6 mph 0.00 in Snow Light Snow
3:19 PM 28.9 °F 21.1 °F 21.9 °F 75% 29.61 in 3.0 mi WSW 8.1 mph 21.9 mph 0.00 in Snow Light Snow
3:27 PM 30.0 °F 23.2 °F 21.9 °F 72% 29.61 in 9.0 mi Variable 6.9 mph - 0.00 in   Overcast
3:35 PM 30.0 °F 25.2 °F 21.0 °F 69% 29.61 in 10.0 mi Variable 4.6 mph - 0.00 in   Overcast
3:53 PM 30.9 °F 22.8 °F 21.0 °F 67% 29.65 in 10.0 mi WSW 9.2 mph 16.1 mph 0.00 in   Overcast
4:53 PM 32.0 °F 23.6 °F 19.9 °F 61% 29.64 in 10.0 mi SW 10.4 mph 19.6 mph 0.00 in   Overcast
5:53 PM 30.9 °F 22.8 °F 24.1 °F 76% 29.68 in 10.0 mi SW 9.2 mph 20.7 mph N/A   Overcast
6:53 PM 30.9 °F 23.5 °F 26.1 °F 82% 29.75 in 9.0 mi West 8.1 mph 16.1 mph 0.00 in   Overcast
7:53 PM 28.0 °F 17.0 °F 5.0 °F 38% 29.82 in 10.0 mi WNW 13.8 mph 28.8 mph N/A   Partly Cloudy
8:53 PM 25.0 °F 16.3 °F 3.0 °F 39% 29.86 in 10.0 mi West 8.1 mph 20.7 mph N/A   Clear
9:53 PM 24.1 °F 14.4 °F -0.0 °F 35% 29.91 in 10.0 mi WNW 9.2 mph 19.6 mph N/A   Clear
10:53 PM 21.9 °F - -0.9 °F 37% 29.94 in 10.0 mi North - - N/A   Clear
11:53 PM 19.0 °F 10.0 °F -2.9 °F 38% 29.95 in 10.0 mi WSW 6.9 mph - N/A   Clear